Wainwright, AK

1:12 PM AKST on December 06, 2016 (GMT -0900)
Wiley Post-Will Rogers Memorial

Weather History for PABR - January, 2013

Change the Weather History Date:

Monday, January 21, 2013

  Actual Average Record
Temperature  
Mean Temperature -7 °F -14 °F  
Max Temperature -5 °F -8 °F 30 °F (1930)
Min Temperature -9 °F -20 °F -50 °F (1925)
Degree Days  
Heating Degree Days 72 79  
Month to date heating degree days 1516 1639  
Since 1 July heating degree days 8884 9846  
Cooling Degree Days 0    
Month to date cooling degree days 0  
Year to date cooling degree days 0  
Moisture  
Dew Point -12 °F    
Average Humidity 0    
Maximum Humidity 0    
Minimum Humidity 0    
Precipitation  
Precipitation 0.00 in 0.00 in 0.07 in (2015)
Month to date precipitation 0.05 0.09  
Year to date precipitation 0.05 0.09  
Snow  
Snow 0.00 in 0.10 in 2.00 in (2015)
Month to date snowfall 2.9 1.8  
Since 1 July snowfall 40.5 25.6  
Snow Depth 6.00 in    
Sea Level Pressure  
Sea Level Pressure 30.72 in    
Wind  
Wind Speed 23 mph (ENE)    
Max Wind Speed 30 mph    
Max Gust Speed 33 mph    
Visibility 9 miles    
Events Snow    
T = Trace of Precipitation, MM = Missing Value Source: NWS Daily Summary

Daily Weather History Graph

Daily Weather History Graph

Search for Another Location

Airport or City:

Trip Planner

Search our weather history database for the weather conditions in past years. The results will help you decide how hot, cold, wet, or windy it might be!

Date:

Astronomy

Jan. 21, 2013 Rise Set
Actual Time 1:06 PM AKST 2:11 PM AKST
Civil Twilight 10:40 AM AKST 4:38 PM AKST
Nautical Twilight 9:05 AM AKST 6:12 PM AKST
Astronomical Twilight 7:46 AM AKST 7:31 PM AKST
Moon No Moon Rise No Moon Set
Length of Visible Light 5h 57m
Length of Day
1h 04m
Waxing Gibbous, 76% of the Moon is Illuminated
Jan 21
Waxing Gibbous
Jan 26
Full
Feb 3
Last Quarter
Feb 9
New
Feb 17
First Quarter

Hourly Weather History & Observations

Time (AKST) Temp. Windchill Dew Point Humidity Pressure Visibility Wind Dir Wind Speed Gust Speed Precip Events Conditions
12:53 AM -7.1 °F -32.7 °F -13.0 °F 75% 30.67 in 10.0 mi NE 23.0 mph 32.2 mph N/A Snow Blowing Snow
1:53 AM -7.1 °F -33.2 °F -13.0 °F 75% 30.67 in 10.0 mi ENE 24.2 mph 33.4 mph N/A Snow Blowing Snow
2:53 AM -7.6 °F -36.1 °F -11.2 °F 84% 30.66 in 5.0 mi ENE 29.9 mph - N/A Snow Blowing Snow
3:53 AM -7.1 °F -33.2 °F -11.9 °F 79% 30.67 in 10.0 mi ENE 24.2 mph 32.2 mph N/A   Mostly Cloudy
4:53 AM -6.0 °F -33.5 °F -11.9 °F 75% 30.68 in 9.0 mi ENE 28.8 mph 33.4 mph N/A   Mostly Cloudy
5:53 AM -6.0 °F -32.2 °F -11.9 °F 75% 30.69 in 10.0 mi ENE 25.3 mph 32.2 mph N/A   Partly Cloudy
6:53 AM -6.0 °F -32.2 °F -11.9 °F 75% 30.70 in 7.0 mi ENE 25.3 mph 33.4 mph N/A   Partly Cloudy
7:53 AM -7.1 °F -32.7 °F -11.9 °F 79% 30.71 in 9.0 mi ENE 23.0 mph 32.2 mph N/A   Partly Cloudy
8:53 AM -7.1 °F -32.1 °F -11.9 °F 79% 30.72 in 7.0 mi ENE 21.9 mph 31.1 mph N/A   Clear
9:53 AM -7.1 °F -33.2 °F -11.9 °F 79% 30.72 in 10.0 mi ENE 24.2 mph 29.9 mph N/A   Scattered Clouds
10:53 AM -7.1 °F -31.6 °F -11.9 °F 79% 30.72 in 5.0 mi NE 20.7 mph 31.1 mph N/A   Haze
11:53 AM -7.1 °F -32.1 °F -11.9 °F 79% 30.72 in 7.0 mi ENE 21.9 mph - N/A   Partly Cloudy
12:53 PM -6.0 °F -30.2 °F -11.9 °F 75% 30.73 in 10.0 mi ENE 20.7 mph - N/A   Clear
1:53 PM -6.0 °F -30.2 °F -11.0 °F 79% 30.74 in 10.0 mi ENE 20.7 mph - N/A   Clear
2:53 PM -5.1 °F -29.0 °F -11.0 °F 76% 30.74 in 10.0 mi ENE 20.7 mph - N/A   Clear
3:53 PM -6.0 °F -30.2 °F -11.0 °F 79% 30.74 in 10.0 mi ENE 20.7 mph 32.2 mph N/A   Clear
4:53 PM -6.0 °F -29.6 °F -11.0 °F 79% 30.73 in 10.0 mi NE 19.6 mph - N/A   Clear
5:53 PM -6.0 °F -29.0 °F -11.0 °F 79% 30.74 in 10.0 mi NE 18.4 mph - N/A   Clear
6:53 PM -6.0 °F -29.6 °F -11.0 °F 79% 30.73 in 10.0 mi NE 19.6 mph - N/A   Clear
7:53 PM -6.0 °F -30.2 °F -11.9 °F 75% 30.73 in 10.0 mi NE 20.7 mph 32.2 mph N/A   Clear
8:53 PM -6.0 °F -32.7 °F -11.9 °F 75% 30.73 in 4.0 mi ENE 26.5 mph 32.2 mph N/A Snow Blowing Snow
9:53 PM -7.1 °F -31.6 °F -13.0 °F 75% 30.74 in 10.0 mi ENE 20.7 mph - N/A   Clear
10:53 PM -8.0 °F -34.9 °F -13.0 °F 79% 30.74 in 8.0 mi ENE 25.3 mph 31.1 mph N/A   Clear
11:53 PM -9.0 °F -35.3 °F -14.1 °F 79% 30.74 in 5.0 mi ENE 23.0 mph - N/A Snow Blowing Snow